,,,PA_Meas_PMT16A,,PR_Meas_QMR101_102,,RH_Meas_QMH101,,SR_Meas_QMS101,,TA_Meas_QMH101,,GenWind,,GenWind,
date,time,status,PA,status,PR,status,RH,status,SR,status,TA,status,DirAvg,status,SpdAvg,
2010-11-13, 00:00:04,VALID,999.636,VALID,0,VALID,91.647,VALID,0,VALID,22.2771,VALID,138,VALID,0.4875,
2010-11-13, 00:01:04,VALID,999.615,VALID,0,VALID,91.6775,VALID,0,VALID,22.2771,VALID,138,VALID,0.335547,
2010-11-13, 00:02:04,VALID,999.592,VALID,0,VALID,91.7157,VALID,0,VALID,22.2966,VALID,138,VALID,0.0734375,
2010-11-13, 00:03:04,VALID,999.569,VALID,0,VALID,91.7004,VALID,0,VALID,22.2966,VALID,138,VALID,0.15,
2010-11-13, 00:04:04,VALID,999.546,VALID,0,VALID,91.7157,VALID,0,VALID,22.2966,VALID,138,VALID,0.217187,
2010-11-13, 00:05:04,VALID,999.526,VALID,0,VALID,91.708,VALID,0,VALID,22.2966,VALID,138,VALID,0.441016,
2010-11-13, 00:06:04,VALID,999.525,VALID,0,VALID,91.708,VALID,0,VALID,22.2771,VALID,138,VALID,0.462109,
2010-11-13, 00:07:04,VALID,999.532,VALID,0,VALID,91.6928,VALID,0,VALID,22.2771,VALID,138,VALID,0.351953,
2010-11-13, 00:08:04,VALID,999.552,VALID,0,VALID,91.6699,VALID,0,VALID,22.2576,VALID,138,VALID,0.305469,
2010-11-13, 00:09:04,VALID,999.524,VALID,0,VALID,91.5631,VALID,0,VALID,22.2381,VALID,138,VALID,0.374609,
2010-11-13, 00:10:04,VALID,999.536,VALID,0,VALID,91.5249,VALID,0,VALID,22.2186,VALID,138,VALID,0.378125,
2010-11-13, 00:11:04,VALID,999.536,VALID,0,VALID,91.4944,VALID,0,VALID,22.2186,VALID,138,VALID,0.351172,
2010-11-13, 00:12:04,VALID,999.512,VALID,0,VALID,91.4639,VALID,0,VALID,22.2186,VALID,138,VALID,0.434375,
2010-11-13, 00:13:04,VALID,999.537,VALID,0,VALID,91.3952,VALID,0,VALID,22.2186,VALID,138,VALID,0.469531,
2010-11-13, 00:14:04,VALID,999.529,VALID,0,VALID,91.3647,VALID,0,VALID,22.2186,VALID,138,VALID,0.741406,
2010-11-13, 00:15:04,VALID,999.515,VALID,0,VALID,91.2579,VALID,0,VALID,22.199,VALID,119,VALID,0.701953,
2010-11-13, 00:16:04,VALID,999.511,VALID,0,VALID,91.2731,VALID,0,VALID,22.2186,VALID,115,VALID,0.600391,
2010-11-13, 00:17:04,VALID,999.481,VALID,0,VALID,91.38,VALID,0,VALID,22.2592,VALID,115,VALID,0.396484,
2010-11-13, 00:18:04,VALID,999.472,VALID,0,VALID,91.3723,VALID,0,VALID,22.2381,VALID,115,VALID,0.142578,
2010-11-13, 00:19:04,VALID,999.441,VALID,0,VALID,91.3342,VALID,0,VALID,22.2186,VALID,115,VALID,0.127734,
2010-11-13, 00:20:04,VALID,999.482,VALID,0,VALID,91.2426,VALID,0,VALID,22.1795,VALID,115,VALID,0.249609,
2010-11-13, 00:21:04,VALID,999.464,VALID,0,VALID,91.296,VALID,0,VALID,22.199,VALID,115,VALID,0.435937,
2010-11-13, 00:22:04,VALID,999.441,VALID,0,VALID,91.296,VALID,0,VALID,22.1795,VALID,115,VALID,0.432813,
2010-11-13, 00:23:04,VALID,999.468,VALID,0,VALID,91.2121,VALID,0,VALID,22.16,VALID,115,VALID,0.432813,
2010-11-13, 00:24:04,VALID,999.447,VALID,0,VALID,91.174,VALID,0,VALID,22.1422,VALID,18,VALID,0.721094,
2010-11-13, 00:25:04,VALID,999.472,VALID,0,VALID,91.2045,VALID,0,VALID,22.1015,VALID,18,VALID,0.833984,
2010-11-13, 00:26:04,VALID,999.452,VALID,0,VALID,91.3189,VALID,0,VALID,22.1032,VALID,18,VALID,0.910937,
2010-11-13, 00:27:04,VALID,999.437,VALID,0,VALID,91.441,VALID,0,VALID,22.082,VALID,18,VALID,0.798828,
2010-11-13, 00:28:04,VALID,999.4,VALID,0,VALID,91.5249,VALID,0,VALID,22.0625,VALID,18,VALID,0.711328,
2010-11-13, 00:29:04,VALID,999.382,VALID,0,VALID,91.6165,VALID,0,VALID,22.0625,VALID,18,VALID,0.527734,
2010-11-13, 00:30:04,VALID,999.396,VALID,0,VALID,91.6623,VALID,0,VALID,22.043,VALID,18,VALID,0.474609,
2010-11-13, 00:31:04,VALID,999.365,VALID,0,VALID,91.6394,VALID,0,VALID,22.004,VALID,18,VALID,0.578906,
2010-11-13, 00:32:04,VALID,999.396,VALID,0,VALID,91.5936,VALID,0,VALID,21.965,VALID,18,VALID,0.6625,
2010-11-13, 00:33:04,VALID,999.395,VALID,0,VALID,91.6165,VALID,0,VALID,21.9455,VALID,18,VALID,0.70625,
2010-11-13, 00:34:04,VALID,999.4,VALID,0,VALID,91.586,VALID,0,VALID,21.9065,VALID,22,VALID,1.19141,
2010-11-13, 00:35:04,VALID,999.418,VALID,0,VALID,91.4639,VALID,0,VALID,21.8887,VALID,31,VALID,0.948438,
2010-11-13, 00:36:04,VALID,999.412,VALID,0,VALID,91.3418,VALID,0,VALID,21.809,VALID,31,VALID,0.894531,
2010-11-13, 00:37:04,VALID,999.378,VALID,0,VALID,91.3189,VALID,0,VALID,21.809,VALID,14,VALID,0.942969,
2010-11-13, 00:38:04,VALID,999.405,VALID,0,VALID,91.4563,VALID,0,VALID,21.8285,VALID,14,VALID,0.503125,
2010-11-13, 00:39:04,VALID,999.408,VALID,0,VALID,91.5249,VALID,0,VALID,21.8268,VALID,14,VALID,0.568359,
2010-11-13, 00:40:04,VALID,999.414,VALID,0,VALID,91.5402,VALID,0,VALID,21.8675,VALID,14,VALID,0.646094,
2010-11-13, 00:41:04,VALID,999.435,VALID,0,VALID,91.4105,VALID,0,VALID,21.8285,VALID,67,VALID,0.907422,
2010-11-13, 00:42:04,VALID,999.43,VALID,0,VALID,91.4639,VALID,0,VALID,21.8285,VALID,70,VALID,0.808203,
2010-11-13, 00:43:04,VALID,999.414,VALID,0,VALID,91.6394,VALID,0,VALID,21.8285,VALID,73,VALID,0.631641,
2010-11-13, 00:44:04,VALID,999.404,VALID,0,VALID,91.7691,VALID,0,VALID,21.8285,VALID,101,VALID,0.760156,
2010-11-13, 00:45:04,VALID,999.4,VALID,0,VALID,91.9064,VALID,0,VALID,21.8301,VALID,104,VALID,0.604688,
2010-11-13, 00:46:04,VALID,999.38,VALID,0,VALID,91.9293,VALID,0,VALID,21.809,VALID,110,VALID,0.611719,
2010-11-13, 00:47:04,VALID,999.347,VALID,0,VALID,91.9369,VALID,0,VALID,21.7911,VALID,110,VALID,0.407813,
2010-11-13, 00:48:04,VALID,999.342,VALID,0,VALID,91.9674,VALID,0,VALID,21.7505,VALID,110,VALID,0.194531,
2010-11-13, 00:49:04,VALID,999.341,VALID,0,VALID,91.9217,VALID,0,VALID,21.7716,VALID,110,VALID,0.0949219,
2010-11-13, 00:50:04,VALID,999.3,VALID,0,VALID,91.9369,VALID,0,VALID,21.731,VALID,110,VALID,0.107422,
2010-11-13, 00:51:04,VALID,999.281,VALID,0,VALID,91.914,VALID,0,VALID,21.7521,VALID,110,VALID,0.201562,
2010-11-13, 00:52:04,VALID,999.249,VALID,0,VALID,91.9445,VALID,0,VALID,21.7115,VALID,110,VALID,0.265234,
2010-11-13, 00:53:04,VALID,999.224,VALID,0,VALID,91.9369,VALID,0,VALID,21.6725,VALID,110,VALID,0.265625,
2010-11-13, 00:54:04,VALID,999.217,VALID,0,VALID,91.9903,VALID,0,VALID,21.653,VALID,110,VALID,0.392188,
2010-11-13, 00:55:04,VALID,999.222,VALID,0,VALID,92.0895,VALID,0,VALID,21.653,VALID,110,VALID,0.378125,
2010-11-13, 00:56:04,VALID,999.185,VALID,0,VALID,92.2268,VALID,0,VALID,21.6725,VALID,110,VALID,0.234375,
2010-11-13, 00:57:04,VALID,999.162,VALID,0,VALID,92.3031,VALID,0,VALID,21.692,VALID,110,VALID,0.0523437,
2010-11-13, 00:58:04,VALID,999.15,VALID,0,VALID,92.3718,VALID,0,VALID,21.692,VALID,110,VALID,0,
2010-11-13, 00:59:04,VALID,999.114,VALID,0,VALID,92.4176,VALID,0,VALID,21.692,VALID,110,VALID,0.107031,
2010-11-13, 01:00:04,VALID,999.094,VALID,0,VALID,92.4557,VALID,0,VALID,21.7115,VALID,110,VALID,0.533984,
2010-11-13, 01:01:04,VALID,999.073,VALID,0,VALID,92.4863,VALID,0,VALID,21.7326,VALID,110,VALID,0.327734,
2010-11-13, 01:02:04,VALID,999.092,VALID,0,VALID,92.5015,VALID,0,VALID,21.731,VALID,110,VALID,0.287891,
2010-11-13, 01:03:04,VALID,999.07,VALID,0,VALID,92.5168,VALID,0,VALID,21.7505,VALID,110,VALID,0.29375,
2010-11-13, 01:04:04,VALID,999.056,VALID,0,VALID,92.5244,VALID,0,VALID,21.7505,VALID,57,VALID,0.741016,
2010-11-13, 01:05:04,VALID,999.069,VALID,0,VALID,92.5168,VALID,0,VALID,21.7505,VALID,38,VALID,0.653125,
2010-11-13, 01:06:04,VALID,999.076,VALID,0,VALID,92.4863,VALID,0,VALID,21.7115,VALID,38,VALID,0.584766,
2010-11-13, 01:07:04,VALID,999.061,VALID,0,VALID,92.4939,VALID,0,VALID,21.7115,VALID,38,VALID,0.555859,
2010-11-13, 01:08:04,VALID,999.074,VALID,0,VALID,92.41,VALID,0,VALID,21.6725,VALID,38,VALID,0.626953,
2010-11-13, 01:09:04,VALID,999.098,VALID,0,VALID,92.3337,VALID,0,VALID,21.6335,VALID,38,VALID,0.690234,
2010-11-13, 01:10:04,VALID,999.064,VALID,0,VALID,92.3031,VALID,0,VALID,21.6335,VALID,28,VALID,0.866016,
2010-11-13, 01:11:04,VALID,999.052,VALID,0,VALID,92.2803,VALID,0,VALID,21.6335,VALID,28,VALID,0.798437,
2010-11-13, 01:12:04,VALID,999.028,VALID,0,VALID,92.2421,VALID,0,VALID,21.614,VALID,28,VALID,0.804297,
2010-11-13, 01:13:04,VALID,999.06,VALID,0,VALID,92.204,VALID,0,VALID,21.575,VALID,28,VALID,0.891406,
2010-11-13, 01:14:04,VALID,999.045,VALID,0,VALID,92.1963,VALID,0,VALID,21.575,VALID,28,VALID,0.949609,
2010-11-13, 01:15:04,VALID,999.05,VALID,0,VALID,92.2268,VALID,0,VALID,21.575,VALID,28,VALID,1.03203,
2010-11-13, 01:16:04,VALID,999.056,VALID,0,VALID,92.1811,VALID,0,VALID,21.536,VALID,28,VALID,1.1457,
2010-11-13, 01:17:04,VALID,999.035,VALID,0,VALID,92.1811,VALID,0,VALID,21.5165,VALID,34,VALID,0.939062,
2010-11-13, 01:18:04,VALID,999.044,VALID,0,VALID,92.1734,VALID,0,VALID,21.497,VALID,34,VALID,0.622656,
2010-11-13, 01:19:04,VALID,999.003,VALID,0,VALID,92.1124,VALID,0,VALID,21.458,VALID,34,VALID,0.625391,
2010-11-13, 01:20:04,VALID,999.013,VALID,0,VALID,92.1429,VALID,0,VALID,21.4596,VALID,34,VALID,0.390625,
2010-11-13, 01:21:04,VALID,998.965,VALID,0,VALID,92.1658,VALID,0,VALID,21.419,VALID,34,VALID,0.401172,
2010-11-13, 01:22:04,VALID,998.965,VALID,0,VALID,92.2192,VALID,0,VALID,21.3995,VALID,34,VALID,0.317578,
2010-11-13, 01:23:04,VALID,998.895,VALID,0,VALID,92.3108,VALID,0,VALID,21.419,VALID,34,VALID,0.266797,
2010-11-13, 01:24:04,VALID,998.899,VALID,0,VALID,92.41,VALID,0,VALID,21.419,VALID,34,VALID,0.0914062,
2010-11-13, 01:25:04,VALID,998.893,VALID,0,VALID,92.4786,VALID,0,VALID,21.3995,VALID,34,VALID,0,
2010-11-13, 01:26:04,VALID,998.893,VALID,0,VALID,92.5091,VALID,0,VALID,21.38,VALID,34,VALID,0,
2010-11-13, 01:27:04,VALID,998.888,VALID,0,VALID,92.5626,VALID,0,VALID,21.38,VALID,34,VALID,0.0671875,
2010-11-13, 01:28:04,VALID,998.85,VALID,0,VALID,92.6465,VALID,0,VALID,21.3605,VALID,34,VALID,0.476953,
2010-11-13, 01:29:04,VALID,998.842,VALID,0,VALID,92.6846,VALID,0,VALID,21.4011,VALID,34,VALID,0.11875,
2010-11-13, 01:30:04,VALID,998.809,VALID,0,VALID,92.7533,VALID,0,VALID,21.3995,VALID,34,VALID,0,
2010-11-13, 01:31:04,VALID,998.815,VALID,0,VALID,92.8372,VALID,0,VALID,21.3995,VALID,34,VALID,0,
2010-11-13, 01:32:04,VALID,998.806,VALID,0,VALID,92.8906,VALID,0,VALID,21.3995,VALID,34,VALID,0,
2010-11-13, 01:33:04,VALID,998.799,VALID,0,VALID,92.9135,VALID,0,VALID,21.3995,VALID,34,VALID,0,
2010-11-13, 01:34:04,VALID,998.799,VALID,0,VALID,92.9593,VALID,0,VALID,21.4011,VALID,34,VALID,0,
2010-11-13, 01:35:04,VALID,998.794,VALID,0,VALID,92.9822,VALID,0,VALID,21.4011,VALID,34,VALID,0.0535156,
2010-11-13, 01:36:04,VALID,998.751,VALID,0,VALID,93.0127,VALID,0,VALID,21.4011,VALID,34,VALID,0.000390625,
2010-11-13, 01:37:04,VALID,998.746,VALID,0,VALID,93.0508,VALID,0,VALID,21.419,VALID,34,VALID,0.280078,
2010-11-13, 01:38:04,VALID,998.759,VALID,0,VALID,93.1119,VALID,0,VALID,21.419,VALID,34,VALID,0,
2010-11-13, 01:39:04,VALID,998.754,VALID,0,VALID,93.1195,VALID,0,VALID,21.38,VALID,34,VALID,0.567969,
2010-11-13, 01:40:04,VALID,998.762,VALID,0,VALID,93.15,VALID,0,VALID,21.3995,VALID,34,VALID,0.357812,
2010-11-13, 01:41:04,VALID,998.769,VALID,0,VALID,93.1805,VALID,0,VALID,21.4206,VALID,34,VALID,0.297266,
2010-11-13, 01:42:04,VALID,998.783,VALID,0,VALID,93.1958,VALID,0,VALID,21.4206,VALID,34,VALID,0.475781,
2010-11-13, 01:43:04,VALID,998.824,VALID,0,VALID,93.234,VALID,0,VALID,21.419,VALID,80,VALID,1.13945,
2010-11-13, 01:44:04,VALID,998.799,VALID,0,VALID,93.2263,VALID,0,VALID,21.419,VALID,88,VALID,1.0957,
2010-11-13, 01:45:04,VALID,998.791,VALID,0,VALID,93.234,VALID,0,VALID,21.4385,VALID,88,VALID,0.779688,
2010-11-13, 01:46:04,VALID,998.772,VALID,0,VALID,93.2263,VALID,0,VALID,21.419,VALID,88,VALID,0.684375,
2010-11-13, 01:47:04,VALID,998.775,VALID,0,VALID,93.2034,VALID,0,VALID,21.4596,VALID,88,VALID,0.650781,
2010-11-13, 01:48:04,VALID,998.786,VALID,0,VALID,93.1653,VALID,0,VALID,21.4385,VALID,88,VALID,0.500781,
2010-11-13, 01:49:04,VALID,998.772,VALID,0,VALID,93.1653,VALID,0,VALID,21.3995,VALID,88,VALID,0.639844,
2010-11-13, 01:50:04,VALID,998.779,VALID,0,VALID,93.1958,VALID,0,VALID,21.458,VALID,88,VALID,0.430859,
2010-11-13, 01:51:04,VALID,998.81,VALID,0,VALID,93.2187,VALID,0,VALID,21.497,VALID,88,VALID,0.393359,
2010-11-13, 01:52:04,VALID,998.803,VALID,0,VALID,93.2263,VALID,0,VALID,21.536,VALID,88,VALID,0.278906,
2010-11-13, 01:53:04,VALID,998.801,VALID,0,VALID,93.2492,VALID,0,VALID,21.575,VALID,88,VALID,0.266406,
2010-11-13, 01:54:04,VALID,998.829,VALID,0,VALID,93.2874,VALID,0,VALID,21.614,VALID,88,VALID,0.301172,
2010-11-13, 01:55:04,VALID,998.791,VALID,0,VALID,93.295,VALID,0,VALID,21.614,VALID,88,VALID,0.0265625,
2010-11-13, 01:56:04,VALID,998.781,VALID,0,VALID,93.3103,VALID,0,VALID,21.5945,VALID,88,VALID,0,
2010-11-13, 01:57:04,VALID,998.77,VALID,0,VALID,93.3026,VALID,0,VALID,21.5945,VALID,88,VALID,0,
2010-11-13, 01:58:04,VALID,998.782,VALID,0,VALID,93.3103,VALID,0,VALID,21.6156,VALID,88,VALID,0,
2010-11-13, 01:59:04,VALID,998.813,VALID,0,VALID,93.3103,VALID,0,VALID,21.536,VALID,88,VALID,0.658203,
2010-11-13, 02:00:04,VALID,998.829,VALID,0,VALID,93.295,VALID,0,VALID,21.497,VALID,88,VALID,0.423047,
2010-11-13, 02:01:04,VALID,998.784,VALID,0,VALID,93.295,VALID,0,VALID,21.4775,VALID,88,VALID,0.102734,
2010-11-13, 02:02:04,VALID,998.763,VALID,0,VALID,93.2645,VALID,0,VALID,21.458,VALID,88,VALID,0.216797,
2010-11-13, 02:03:04,VALID,998.781,VALID,0,VALID,93.2797,VALID,0,VALID,21.458,VALID,88,VALID,0.171484,
2010-11-13, 02:04:04,VALID,998.793,VALID,0,VALID,93.2721,VALID,0,VALID,21.4775,VALID,88,VALID,0.791406,
2010-11-13, 02:05:04,VALID,998.778,VALID,0,VALID,93.2797,VALID,0,VALID,21.5165,VALID,97,VALID,0.799609,
2010-11-13, 02:06:04,VALID,998.808,VALID,0,VALID,93.2874,VALID,0,VALID,21.5555,VALID,100,VALID,0.742188,
2010-11-13, 02:07:04,VALID,998.8,VALID,0,VALID,93.2874,VALID,0,VALID,21.5945,VALID,100,VALID,0.717578,
2010-11-13, 02:08:04,VALID,998.824,VALID,0,VALID,93.295,VALID,0,VALID,21.614,VALID,100,VALID,0.595703,
2010-11-13, 02:09:04,VALID,998.784,VALID,0,VALID,93.2874,VALID,0,VALID,21.6335,VALID,100,VALID,0.416016,
2010-11-13, 02:10:04,VALID,998.773,VALID,0,VALID,93.2797,VALID,0,VALID,21.6936,VALID,100,VALID,0.237109,
2010-11-13, 02:11:04,VALID,998.792,VALID,0,VALID,93.2416,VALID,0,VALID,21.6725,VALID,100,VALID,0.0933594,
2010-11-13, 02:12:04,VALID,998.78,VALID,0,VALID,93.2111,VALID,0,VALID,21.692,VALID,100,VALID,0,
2010-11-13, 02:13:04,VALID,998.8,VALID,0,VALID,93.2034,VALID,0,VALID,21.6725,VALID,100,VALID,0.175781,
2010-11-13, 02:14:04,VALID,998.801,VALID,0,VALID,93.1424,VALID,0,VALID,21.653,VALID,100,VALID,0.223047,
2010-11-13, 02:15:04,VALID,998.776,VALID,0,VALID,93.0661,VALID,0,VALID,21.5945,VALID,100,VALID,0.108594,
2010-11-13, 02:16:04,VALID,998.781,VALID,0,VALID,92.9669,VALID,0,VALID,21.5165,VALID,100,VALID,0.0273438,
2010-11-13, 02:17:04,VALID,998.769,VALID,0,VALID,92.883,VALID,0,VALID,21.4986,VALID,100,VALID,0,
2010-11-13, 02:18:04,VALID,998.769,VALID,0,VALID,92.7838,VALID,0,VALID,21.4385,VALID,100,VALID,0,
2010-11-13, 02:19:04,VALID,998.779,VALID,0,VALID,92.6694,VALID,0,VALID,21.419,VALID,100,VALID,0.448438,
2010-11-13, 02:20:04,VALID,998.813,VALID,0,VALID,92.6388,VALID,0,VALID,21.4206,VALID,100,VALID,0.703516,
2010-11-13, 02:21:04,VALID,998.818,VALID,0,VALID,92.7304,VALID,0,VALID,21.4775,VALID,100,VALID,0.828125,
2010-11-13, 02:22:04,VALID,998.855,VALID,0,VALID,92.7609,VALID,0,VALID,21.5165,VALID,96,VALID,0.732813,
2010-11-13, 02:23:04,VALID,998.822,VALID,0,VALID,92.738,VALID,0,VALID,21.5181,VALID,41,VALID,0.8,
2010-11-13, 02:24:04,VALID,998.835,VALID,0,VALID,92.6694,VALID,0,VALID,21.458,VALID,30,VALID,0.967578,
2010-11-13, 02:25:04,VALID,998.841,VALID,0,VALID,92.5702,VALID,0,VALID,21.38,VALID,22,VALID,0.714063,
2010-11-13, 02:26:04,VALID,998.832,VALID,0,VALID,92.4939,VALID,0,VALID,21.3215,VALID,22,VALID,0.486719,
2010-11-13, 02:27:04,VALID,998.833,VALID,0,VALID,92.4939,VALID,0,VALID,21.302,VALID,22,VALID,0.428906,
2010-11-13, 02:28:04,VALID,998.82,VALID,0,VALID,92.5397,VALID,0,VALID,21.302,VALID,22,VALID,0.351953,
2010-11-13, 02:29:04,VALID,998.809,VALID,0,VALID,92.6083,VALID,0,VALID,21.3231,VALID,22,VALID,0.396094,
2010-11-13, 02:30:04,VALID,998.794,VALID,0,VALID,92.6923,VALID,0,VALID,21.341,VALID,22,VALID,0.345313,
2010-11-13, 02:31:04,VALID,998.781,VALID,0,VALID,92.7533,VALID,0,VALID,21.3621,VALID,22,VALID,0.378125,
2010-11-13, 02:32:04,VALID,998.81,VALID,0,VALID,92.8296,VALID,0,VALID,21.3215,VALID,22,VALID,0.311328,
2010-11-13, 02:33:04,VALID,998.793,VALID,0,VALID,92.8525,VALID,0,VALID,21.3426,VALID,22,VALID,0.194531,
2010-11-13, 02:34:04,VALID,998.807,VALID,0,VALID,92.9135,VALID,0,VALID,21.302,VALID,22,VALID,0,
2010-11-13, 02:35:04,VALID,998.83,VALID,0,VALID,92.9288,VALID,0,VALID,21.302,VALID,22,VALID,0,
2010-11-13, 02:36:04,VALID,998.824,VALID,0,VALID,92.9364,VALID,0,VALID,21.263,VALID,22,VALID,0.00234375,
2010-11-13, 02:37:04,VALID,998.806,VALID,0,VALID,92.9517,VALID,0,VALID,21.2825,VALID,22,VALID,0.350391,
2010-11-13, 02:38:04,VALID,998.792,VALID,0,VALID,92.9822,VALID,0,VALID,21.263,VALID,22,VALID,0.397266,
2010-11-13, 02:39:04,VALID,998.822,VALID,0,VALID,93.0203,VALID,0,VALID,21.2825,VALID,22,VALID,0.523438,
2010-11-13, 02:40:04,VALID,998.839,VALID,0,VALID,93.0737,VALID,0,VALID,21.3215,VALID,22,VALID,0.2875,
2010-11-13, 02:41:04,VALID,998.852,VALID,0,VALID,93.089,VALID,0,VALID,21.3231,VALID,22,VALID,0,
2010-11-13, 02:42:04,VALID,998.844,VALID,0,VALID,93.0966,VALID,0,VALID,21.263,VALID,22,VALID,0.114844,
2010-11-13, 02:43:04,VALID,998.837,VALID,0,VALID,93.1119,VALID,0,VALID,21.263,VALID,22,VALID,0,
2010-11-13, 02:44:04,VALID,998.822,VALID,0,VALID,93.1271,VALID,0,VALID,21.224,VALID,22,VALID,0,
2010-11-13, 02:45:04,VALID,998.813,VALID,0,VALID,93.1119,VALID,0,VALID,21.185,VALID,22,VALID,0,
2010-11-13, 02:46:04,VALID,998.804,VALID,0,VALID,93.1348,VALID,0,VALID,21.185,VALID,22,VALID,0,
2010-11-13, 02:47:04,VALID,998.764,VALID,0,VALID,93.1729,VALID,0,VALID,21.2045,VALID,22,VALID,0,
2010-11-13, 02:48:04,VALID,998.772,VALID,0,VALID,93.1958,VALID,0,VALID,21.2256,VALID,22,VALID,0.0527344,
2010-11-13, 02:49:04,VALID,998.761,VALID,0,VALID,93.2187,VALID,0,VALID,21.2045,VALID,22,VALID,0.0546875,
2010-11-13, 02:50:04,VALID,998.764,VALID,0,VALID,93.234,VALID,0,VALID,21.2256,VALID,22,VALID,0,
2010-11-13, 02:51:04,VALID,998.714,VALID,0,VALID,93.2645,VALID,0,VALID,21.2451,VALID,22,VALID,0.0691406,
2010-11-13, 02:52:04,VALID,998.73,VALID,0,VALID,93.295,VALID,0,VALID,21.2435,VALID,22,VALID,0.513281,
2010-11-13, 02:53:04,VALID,998.718,VALID,0,VALID,93.3255,VALID,0,VALID,21.2435,VALID,22,VALID,0.772266,
2010-11-13, 02:54:04,VALID,998.7,VALID,0,VALID,93.3255,VALID,0,VALID,21.263,VALID,22,VALID,0.747266,
2010-11-13, 02:55:04,VALID,998.704,VALID,0,VALID,93.3179,VALID,0,VALID,21.263,VALID,22,VALID,0.5875,
2010-11-13, 02:56:04,VALID,998.714,VALID,0,VALID,93.3103,VALID,0,VALID,21.224,VALID,22,VALID,0.494531,
2010-11-13, 02:57:04,VALID,998.719,VALID,0,VALID,93.2874,VALID,0,VALID,21.2256,VALID,22,VALID,0.604688,
2010-11-13, 02:58:04,VALID,998.728,VALID,0,VALID,93.295,VALID,0,VALID,21.2045,VALID,22,VALID,0.639844,
2010-11-13, 02:59:04,VALID,998.724,VALID,0,VALID,93.3026,VALID,0,VALID,21.224,VALID,22,VALID,0.705078,
2010-11-13, 03:00:04,VALID,998.73,VALID,0,VALID,93.3255,VALID,0,VALID,21.263,VALID,22,VALID,0.654688,
2010-11-13, 03:01:04,VALID,998.749,VALID,0,VALID,93.3255,VALID,0,VALID,21.2825,VALID,22,VALID,0.725,
2010-11-13, 03:02:04,VALID,998.752,VALID,0,VALID,93.3103,VALID,0,VALID,21.2825,VALID,22,VALID,0.547266,
2010-11-13, 03:03:04,VALID,998.742,VALID,0,VALID,93.2645,VALID,0,VALID,21.2435,VALID,22,VALID,0.654688,
2010-11-13, 03:04:04,VALID,998.748,VALID,0,VALID,93.2187,VALID,0,VALID,21.2646,VALID,22,VALID,0.715234,
2010-11-13, 03:05:04,VALID,998.766,VALID,0,VALID,93.2034,VALID,0,VALID,21.2841,VALID,22,VALID,0.739844,
2010-11-13, 03:06:04,VALID,998.723,VALID,0,VALID,93.1805,VALID,0,VALID,21.2825,VALID,22,VALID,0.903125,
2010-11-13, 03:07:04,VALID,998.742,VALID,0,VALID,93.1729,VALID,0,VALID,21.3621,VALID,27,VALID,1.08359,
2010-11-13, 03:08:04,VALID,998.774,VALID,0,VALID,93.1653,VALID,0,VALID,21.3816,VALID,36,VALID,1.11445,
2010-11-13, 03:09:04,VALID,998.783,VALID,0,VALID,93.1119,VALID,0,VALID,21.3621,VALID,39,VALID,1.00781,
2010-11-13, 03:10:04,VALID,998.763,VALID,0,VALID,93.028,VALID,0,VALID,21.3215,VALID,42,VALID,0.922656,
2010-11-13, 03:11:04,VALID,998.794,VALID,0,VALID,92.9669,VALID,0,VALID,21.302,VALID,42,VALID,0.776172,
2010-11-13, 03:12:04,VALID,998.765,VALID,0,VALID,92.8906,VALID,0,VALID,21.2435,VALID,42,VALID,0.666406,
2010-11-13, 03:13:04,VALID,998.771,VALID,0,VALID,92.8143,VALID,0,VALID,21.2256,VALID,42,VALID,0.723047,
2010-11-13, 03:14:04,VALID,998.758,VALID,0,VALID,92.8143,VALID,0,VALID,21.2045,VALID,59,VALID,0.662891,
2010-11-13, 03:15:04,VALID,998.775,VALID,0,VALID,92.8525,VALID,0,VALID,21.2435,VALID,59,VALID,0.601172,
2010-11-13, 03:16:04,VALID,998.754,VALID,0,VALID,92.8448,VALID,0,VALID,21.2646,VALID,59,VALID,0.530078,
2010-11-13, 03:17:04,VALID,998.756,VALID,0,VALID,92.8754,VALID,0,VALID,21.224,VALID,59,VALID,0.450391,
2010-11-13, 03:18:04,VALID,998.733,VALID,0,VALID,92.8754,VALID,0,VALID,21.2256,VALID,59,VALID,0.342578,
2010-11-13, 03:19:04,VALID,998.747,VALID,0,VALID,92.8448,VALID,0,VALID,21.185,VALID,59,VALID,0.173047,
2010-11-13, 03:20:04,VALID,998.788,VALID,0,VALID,92.883,VALID,0,VALID,21.1655,VALID,59,VALID,0.148828,
2010-11-13, 03:21:04,VALID,998.774,VALID,0,VALID,92.8601,VALID,0,VALID,21.1265,VALID,59,VALID,0.223438,
2010-11-13, 03:22:04,VALID,998.764,VALID,0,VALID,92.8525,VALID,0,VALID,21.1281,VALID,59,VALID,0.345313,
2010-11-13, 03:23:04,VALID,998.803,VALID,0,VALID,92.8448,VALID,0,VALID,21.0875,VALID,59,VALID,0.6125,
2010-11-13, 03:24:04,VALID,998.77,VALID,0,VALID,92.8677,VALID,0,VALID,21.0875,VALID,59,VALID,0.578906,
2010-11-13, 03:25:04,VALID,998.79,VALID,0,VALID,92.9288,VALID,0,VALID,21.0875,VALID,59,VALID,0.421875,
2010-11-13, 03:26:04,VALID,998.785,VALID,0,VALID,92.9745,VALID,0,VALID,21.0875,VALID,59,VALID,0.227344,
2010-11-13, 03:27:04,VALID,998.799,VALID,0,VALID,92.9898,VALID,0,VALID,21.0891,VALID,59,VALID,0.207813,
2010-11-13, 03:28:04,VALID,998.777,VALID,0,VALID,93.0203,VALID,0,VALID,21.068,VALID,59,VALID,0.283203,
2010-11-13, 03:29:04,VALID,998.787,VALID,0,VALID,93.0432,VALID,0,VALID,21.0891,VALID,59,VALID,0.211719,
2010-11-13, 03:30:04,VALID,998.792,VALID,0,VALID,93.1043,VALID,0,VALID,21.0891,VALID,59,VALID,0.370313,
2010-11-13, 03:31:04,VALID,998.8,VALID,0,VALID,93.1195,VALID,0,VALID,21.1086,VALID,59,VALID,0.470703,
2010-11-13, 03:32:04,VALID,998.836,VALID,0,VALID,93.1882,VALID,0,VALID,21.0875,VALID,59,VALID,0.628516,
2010-11-13, 03:33:04,VALID,998.849,VALID,0,VALID,93.2187,VALID,0,VALID,21.107,VALID,24,VALID,0.719922,
2010-11-13, 03:34:04,VALID,998.902,VALID,0,VALID,93.2187,VALID,0,VALID,21.0875,VALID,24,VALID,0.660156,
2010-11-13, 03:35:04,VALID,998.892,VALID,0,VALID,93.2416,VALID,0,VALID,21.1086,VALID,24,VALID,0.539063,
2010-11-13, 03:36:04,VALID,998.901,VALID,0,VALID,93.2645,VALID,0,VALID,21.107,VALID,24,VALID,0.458594,
2010-11-13, 03:37:04,VALID,998.904,VALID,0,VALID,93.2797,VALID,0,VALID,21.107,VALID,24,VALID,0.545703,
2010-11-13, 03:38:04,VALID,998.945,VALID,0,VALID,93.3331,VALID,0,VALID,21.1265,VALID,24,VALID,0.450391,
2010-11-13, 03:39:04,VALID,998.938,VALID,0,VALID,93.3026,VALID,0,VALID,21.0875,VALID,24,VALID,0.343359,
2010-11-13, 03:40:04,VALID,998.94,VALID,0,VALID,93.3331,VALID,0,VALID,21.068,VALID,24,VALID,0.0855469,
2010-11-13, 03:41:04,VALID,998.964,VALID,0,VALID,93.3103,VALID,0,VALID,21.068,VALID,24,VALID,0,
2010-11-13, 03:42:04,VALID,998.956,VALID,0,VALID,93.3255,VALID,0,VALID,21.0891,VALID,24,VALID,0.0597656,
2010-11-13, 03:43:04,VALID,998.99,VALID,0,VALID,93.3331,VALID,0,VALID,21.068,VALID,24,VALID,0,
2010-11-13, 03:44:04,VALID,999.008,VALID,0,VALID,93.3331,VALID,0,VALID,21.0485,VALID,24,VALID,0.219922,
2010-11-13, 03:45:04,VALID,999.052,VALID,0,VALID,93.3408,VALID,0,VALID,21.029,VALID,24,VALID,0.315625,
2010-11-13, 03:46:04,VALID,999.022,VALID,0,VALID,93.3331,VALID,0,VALID,21.029,VALID,24,VALID,0.273438,
2010-11-13, 03:47:04,VALID,999.005,VALID,0,VALID,93.3179,VALID,0,VALID,21.0095,VALID,24,VALID,0.169141,
2010-11-13, 03:48:04,VALID,998.998,VALID,0,VALID,93.3484,VALID,0,VALID,21.029,VALID,24,VALID,0.323438,